星链-3153 (STARLINK-3153 )

导读

STARLINK-3153是美国于2021年11月13日发射的Starlink星链卫星,属于SpaceX公司打造的低轨卫星互联网星座组成部分,旨在为全球提供高速低延迟互联网服务,尤其覆盖偏远地区及网络不发达区域。该卫星运行于近地轨道,通过星间链路实现通信组网,持续为全球用户提供宽带连接服务,支撑星链系统的全球覆盖能力。

Basic Information
目录编号:
49431
目录名称:
STARLINK-3153
国际标识:
2021-104Z
轨道中心:
EARTH
卫星名称:
星链-3153
卫星全名:
星链-3153 (STARLINK-3153 )
卫星状态:
在轨 (已飞行1677 天)
发射日期:
2021-11-13 UTC
国别 :
美国 (US)
星等 :
--
Orbit Information
数据来源 国际轨道数据 AOE轨道数据
星历时间 2026-06-17T12:54:32+0800
10小时前
查看轨道信息
2026-06-15T06:00:00+0800
2天前
查看轨道信息
半长轴 6917.896km 6917.929km
偏心率 0.0001352 0.0001333
轨道倾角 53.161° 53.159°
近地点辐角 85.263° 71.051°
升交点赤经 142.469° 152.753°
平近点角 274.851° 94.947°
近地点 538.823km 538.869km
远地点 540.695km 540.715km
周期 95.438分钟 95.439分钟
每日圈数 15.08835 15.088243
Detailed Information
固有亮度:
5
最大亮度:
2.5
卫星平台:
Starlink v1.5
覆盖范围:
全球
运营商:
太空探索技术公司
运营商所在国:
美国
制造商(研发单位):
太空探索技术公司
制造商所在国:
美国
使用方式:
暂无
Satellite Introduction
星链(Starlink)计划是由太空探索技术公司(SpaceX)提出的一个巨型低轨卫星互联网星座项目,计划在2019年至2024年间在太空搭建由约1.2万颗卫星组成的“星链”网络,其中1584颗将部署在地球上空550千米处的近地轨道,并从2020年开始工作。该卫星仍在工作。
2D Orbit Map
3D Orbit Map
Orbit Altitude Analysis Chart
Orbit Inclination Analysis Chart
Orbit Comprehensive Analysis Chart
View Comprehensive Chart